Location: Saratoga Springs
(43.0831°N, 73.7850°W)
Time: 13:13:43
(UTC-04:00)

Transit 4A - Pass Details

Date: 17 April 2024
Orbit: 871 x 971 km, 66.8° (Epoch: 20 May)

Event Time Altitude Azimuth Distance (km) Brightness Sun altitude
Rises 23:01:56 0° 328° (NNW) 3,468 12.1 -30.1°
Reaches altitude 10° 23:04:24 10° 329° (NNW) 2,527 11.1 -30.4°
Enters shadow 23:09:29 69° 325° (NW) 936 7.9 -30.9°
